Time,TemperatureF,DewpointF,PressureIn,WindDirection,WindDirectionDegrees,WindSpeedMPH,WindSpeedGustMPH,Humidity,HourlyPrecipIn,Conditions,Clouds,dailyrainin,SoftwareType,DateUTC
2013-06-11 00:03:00,78.0,63.9,29.12,South,185,4.3,7.4,62,0.00,,,0.00,WSDL version 426,2013-06-11 05:03:00,
2013-06-11 00:08:00,77.8,63.8,29.15,South,188,4.1,7.8,62,0.00,,,0.00,WSDL version 426,2013-06-11 05:08:00,
2013-06-11 00:13:00,77.7,63.7,29.15,South,172,4.6,11.0,62,0.00,,,0.00,WSDL version 426,2013-06-11 05:13:00,
2013-06-11 00:18:00,77.8,63.8,29.15,South,185,5.4,11.0,62,0.00,,,0.00,WSDL version 426,2013-06-11 05:18:00,
2013-06-11 00:23:00,77.8,63.8,29.15,South,183,4.4,7.8,62,0.00,,,0.00,WSDL version 426,2013-06-11 05:23:00,
2013-06-11 00:28:00,77.7,63.6,29.15,SSE,160,4.4,8.1,62,0.00,,,0.00,WSDL version 426,2013-06-11 05:28:00,
2013-06-11 00:33:00,77.5,63.5,29.15,South,172,4.4,8.1,62,0.00,,,0.00,WSDL version 426,2013-06-11 05:33:00,
2013-06-11 00:38:00,77.5,63.4,29.15,SSE,163,4.3,7.4,62,0.00,,,0.00,WSDL version 426,2013-06-11 05:38:00,
2013-06-11 00:43:00,77.6,63.4,29.15,SSE,160,5.2,9.6,61,0.00,,,0.00,WSDL version 426,2013-06-11 05:43:00,
2013-06-11 00:48:00,77.5,63.2,29.15,South,180,4.3,9.6,62,0.00,,,0.00,WSDL version 426,2013-06-11 05:48:00,
2013-06-11 00:53:00,77.4,63.0,29.15,South,180,5.7,8.1,61,0.00,,,0.00,WSDL version 426,2013-06-11 05:53:00,
2013-06-11 00:58:00,77.3,62.8,29.15,South,183,4.1,8.1,61,0.00,,,0.00,WSDL version 426,2013-06-11 05:58:00,
2013-06-11 01:03:00,77.2,62.7,29.15,South,190,4.6,8.7,61,0.00,,,0.00,WSDL version 426,2013-06-11 06:03:00,
2013-06-11 01:08:00,77.2,62.8,29.15,South,188,4.5,8.7,61,0.00,,,0.00,WSDL version 426,2013-06-11 06:08:00,
2013-06-11 01:13:00,77.2,62.7,29.15,South,175,4.9,10.5,61,0.00,,,0.00,WSDL version 426,2013-06-11 06:13:00,
2013-06-11 01:18:00,77.2,62.7,29.15,South,180,4.6,10.5,61,0.00,,,0.00,WSDL version 426,2013-06-11 06:18:00,
2013-06-11 01:23:00,77.3,62.4,29.15,South,174,5.3,8.5,60,0.00,,,0.00,WSDL version 426,2013-06-11 06:23:00,
2013-06-11 01:28:00,77.4,62.3,29.15,South,175,4.8,8.5,60,0.00,,,0.00,WSDL version 426,2013-06-11 06:28:00,
2013-06-11 01:33:00,77.5,62.1,29.15,SSW,194,5.0,12.1,59,0.00,,,0.00,WSDL version 426,2013-06-11 06:33:00,
2013-06-11 01:38:00,77.5,61.7,29.15,South,178,5.5,12.1,58,0.00,,,0.00,WSDL version 426,2013-06-11 06:38:00,
2013-06-11 01:43:00,77.7,61.5,29.15,SSE,160,6.0,8.7,57,0.00,,,0.00,WSDL version 426,2013-06-11 06:43:00,
2013-06-11 01:48:00,77.7,61.3,29.15,South,180,5.2,8.9,57,0.00,,,0.00,WSDL version 426,2013-06-11 06:48:00,
2013-06-11 01:53:00,77.8,61.1,29.15,South,170,5.9,9.4,56,0.00,,,0.00,WSDL version 426,2013-06-11 06:53:00,
2013-06-11 01:58:00,78.0,60.7,29.15,SSW,206,5.0,9.4,55,0.00,,,0.00,WSDL version 426,2013-06-11 06:58:00,
2013-06-11 02:03:00,77.9,60.5,29.15,South,186,4.7,11.0,55,0.00,,,0.00,WSDL version 426,2013-06-11 07:03:00,
2013-06-11 02:08:00,77.8,60.4,29.15,SSE,160,5.3,11.0,55,0.00,,,0.00,WSDL version 426,2013-06-11 07:08:00,
2013-06-11 02:13:00,77.7,60.3,29.15,South,183,4.6,9.4,55,0.00,,,0.00,WSDL version 426,2013-06-11 07:13:00,
2013-06-11 02:18:00,77.9,60.4,29.15,South,177,4.9,8.5,55,0.00,,,0.00,WSDL version 426,2013-06-11 07:18:00,
2013-06-11 02:23:00,77.6,60.2,29.15,South,183,4.2,8.5,56,0.00,,,0.00,WSDL version 426,2013-06-11 07:23:00,
2013-06-11 02:28:00,77.3,60.4,29.15,South,185,3.9,6.9,56,0.00,,,0.00,WSDL version 426,2013-06-11 07:28:00,
2013-06-11 02:33:00,77.2,60.4,29.15,South,191,5.3,7.6,56,0.00,,,0.00,WSDL version 426,2013-06-11 07:33:00,
2013-06-11 02:38:00,77.0,60.5,29.15,South,180,4.5,8.1,57,0.00,,,0.00,WSDL version 426,2013-06-11 07:38:00,
2013-06-11 02:43:00,77.0,60.6,29.15,South,186,4.4,8.1,57,0.00,,,0.00,WSDL version 426,2013-06-11 07:43:00,
2013-06-11 02:48:00,76.8,60.8,29.15,SSW,198,4.3,7.6,58,0.00,,,0.00,WSDL version 426,2013-06-11 07:48:00,
2013-06-11 02:53:00,76.6,60.7,29.15,South,186,4.0,7.2,58,0.00,,,0.00,WSDL version 426,2013-06-11 07:53:00,
2013-06-11 02:58:00,76.4,60.8,29.15,SSW,195,3.8,8.9,59,0.00,,,0.00,WSDL version 426,2013-06-11 07:58:00,
2013-06-11 03:03:00,76.2,60.8,29.15,South,185,3.4,8.9,59,0.00,,,0.00,WSDL version 426,2013-06-11 08:03:00,
2013-06-11 03:08:00,75.9,60.6,29.15,SSW,200,4.3,7.2,59,0.00,,,0.00,WSDL version 426,2013-06-11 08:08:00,
2013-06-11 03:13:00,75.7,60.8,29.15,South,183,4.5,8.5,60,0.00,,,0.00,WSDL version 426,2013-06-11 08:13:00,
2013-06-11 03:18:00,75.8,60.9,29.15,South,177,3.0,8.5,60,0.00,,,0.00,WSDL version 426,2013-06-11 08:18:00,
2013-06-11 03:23:00,75.5,60.7,29.15,South,175,4.0,6.0,60,0.00,,,0.00,WSDL version 426,2013-06-11 08:23:00,
2013-06-11 03:28:00,75.3,60.7,29.15,South,183,3.2,6.0,60,0.00,,,0.00,WSDL version 426,2013-06-11 08:28:00,
2013-06-11 03:33:00,75.1,61.0,29.15,SSE,165,3.5,6.0,62,0.00,,,0.00,WSDL version 426,2013-06-11 08:33:00,
2013-06-11 03:38:00,74.8,60.9,29.15,SSE,153,3.8,6.5,62,0.00,,,0.00,WSDL version 426,2013-06-11 08:38:00,
2013-06-11 03:43:00,74.6,60.7,29.15,SSE,158,2.6,6.5,62,0.00,,,0.00,WSDL version 426,2013-06-11 08:43:00,
2013-06-11 03:48:00,74.4,60.5,29.15,South,173,2.2,5.6,62,0.00,,,0.00,WSDL version 426,2013-06-11 08:48:00,
2013-06-11 03:53:00,74.2,60.9,29.15,South,191,2.6,4.0,64,0.00,,,0.00,WSDL version 426,2013-06-11 08:53:00,
2013-06-11 03:58:00,74.0,60.8,29.15,South,173,2.3,4.7,64,0.00,,,0.00,WSDL version 426,2013-06-11 08:58:00,
2013-06-11 04:03:00,73.8,60.9,29.15,SSE,155,2.8,4.7,64,0.00,,,0.00,WSDL version 426,2013-06-11 09:03:00,
2013-06-11 04:08:00,73.5,60.8,29.15,SSE,168,3.0,4.9,65,0.00,,,0.00,WSDL version 426,2013-06-11 09:08:00,
2013-06-11 04:13:00,73.3,60.7,29.15,SSE,165,2.8,4.9,65,0.00,,,0.00,WSDL version 426,2013-06-11 09:13:00,
2013-06-11 04:18:00,73.1,60.8,29.15,South,172,3.1,4.3,66,0.00,,,0.00,WSDL version 426,2013-06-11 09:18:00,
2013-06-11 04:23:00,73.0,60.9,29.15,SSE,168,2.7,4.3,66,0.00,,,0.00,WSDL version 426,2013-06-11 09:23:00,
2013-06-11 04:28:00,72.8,60.8,29.15,SSE,158,2.5,4.3,66,0.00,,,0.00,WSDL version 426,2013-06-11 09:28:00,
2013-06-11 04:33:00,72.7,60.9,29.15,SSE,160,3.1,4.7,67,0.00,,,0.00,WSDL version 426,2013-06-11 09:33:00,
2013-06-11 04:38:00,73.0,61.7,29.15,SSE,163,3.3,5.4,68,0.00,,,0.00,WSDL version 426,2013-06-11 09:38:00,
2013-06-11 04:43:00,72.8,61.2,29.15,SSE,165,2.9,5.4,67,0.00,,,0.00,WSDL version 426,2013-06-11 09:43:00,
2013-06-11 04:48:00,72.5,61.0,29.15,SSE,155,2.7,5.6,67,0.00,,,0.00,WSDL version 426,2013-06-11 09:48:00,
2013-06-11 04:53:00,72.3,60.8,29.15,South,169,2.9,5.6,67,0.00,,,0.00,WSDL version 426,2013-06-11 09:53:00,
2013-06-11 04:58:00,72.1,61.0,29.15,SSE,160,3.0,4.7,68,0.00,,,0.00,WSDL version 426,2013-06-11 09:58:00,
2013-06-11 05:03:00,72.0,60.9,29.15,SSE,160,3.2,5.6,68,0.00,,,0.00,WSDL version 426,2013-06-11 10:03:00,
2013-06-11 05:08:00,71.9,61.1,29.15,South,180,2.8,5.6,69,0.00,,,0.00,WSDL version 426,2013-06-11 10:08:00,
2013-06-11 05:13:00,71.8,61.1,29.15,South,177,2.6,4.9,69,0.00,,,0.00,WSDL version 426,2013-06-11 10:13:00,
2013-06-11 05:18:00,71.7,61.1,29.15,SSE,160,2.6,4.9,70,0.00,,,0.00,WSDL version 426,2013-06-11 10:18:00,
2013-06-11 05:23:00,71.9,61.6,29.15,South,175,2.6,4.3,70,0.00,,,0.00,WSDL version 426,2013-06-11 10:23:00,
2013-06-11 05:28:00,71.9,61.5,29.15,SSE,155,2.7,6.3,69,0.00,,,0.00,WSDL version 426,2013-06-11 10:28:00,
2013-06-11 05:33:00,71.8,61.3,29.15,South,180,3.0,6.3,70,0.00,,,0.00,WSDL version 426,2013-06-11 10:33:00,
2013-06-11 05:38:00,71.7,61.2,29.15,South,183,3.8,6.3,70,0.00,,,0.00,WSDL version 426,2013-06-11 10:38:00,
2013-06-11 05:43:00,71.8,61.5,29.15,South,173,3.4,6.3,70,0.00,,,0.00,WSDL version 426,2013-06-11 10:43:00,
2013-06-11 05:48:00,71.8,61.5,29.15,South,174,3.2,5.4,70,0.00,,,0.00,WSDL version 426,2013-06-11 10:48:00,
2013-06-11 05:53:00,71.8,61.5,29.15,South,175,3.4,6.0,70,0.00,,,0.00,WSDL version 426,2013-06-11 10:53:00,
2013-06-11 05:58:00,71.6,61.3,29.15,SSE,158,4.3,6.3,70,0.00,,,0.00,WSDL version 426,2013-06-11 10:58:00,
2013-06-11 06:03:00,71.6,61.3,29.15,South,174,4.1,6.5,70,0.00,,,0.00,WSDL version 426,2013-06-11 11:03:00,
2013-06-11 06:08:00,71.6,61.3,29.18,South,183,4.9,6.5,70,0.00,,,0.00,WSDL version 426,2013-06-11 11:08:00,
2013-06-11 06:13:00,71.6,61.3,29.18,South,183,4.0,6.3,70,0.00,,,0.00,WSDL version 426,2013-06-11 11:13:00,
2013-06-11 06:18:00,71.6,61.3,29.18,South,178,3.4,6.3,70,0.00,,,0.00,WSDL version 426,2013-06-11 11:18:00,
2013-06-11 06:23:00,71.6,61.3,29.18,South,180,3.9,6.3,70,0.00,,,0.00,WSDL version 426,2013-06-11 11:23:00,
2013-06-11 06:28:00,71.7,61.4,29.18,SSE,168,4.0,7.4,70,0.00,,,0.00,WSDL version 426,2013-06-11 11:28:00,
2013-06-11 06:33:00,71.7,61.4,29.18,South,178,4.8,7.4,70,0.00,,,0.00,WSDL version 426,2013-06-11 11:33:00,
2013-06-11 06:38:00,71.8,61.5,29.18,South,174,4.7,8.1,70,0.00,,,0.00,WSDL version 426,2013-06-11 11:38:00,
2013-06-11 06:43:00,71.8,61.3,29.18,South,188,4.9,8.1,70,0.00,,,0.00,WSDL version 426,2013-06-11 11:43:00,
2013-06-11 06:48:00,71.9,61.6,29.18,SSE,161,4.1,7.6,70,0.00,,,0.00,WSDL version 426,2013-06-11 11:48:00,
2013-06-11 06:53:00,72.0,61.5,29.18,South,170,3.9,7.6,70,0.00,,,0.00,WSDL version 426,2013-06-11 11:53:00,
2013-06-11 06:58:00,72.0,61.4,29.18,South,169,4.8,7.6,69,0.00,,,0.00,WSDL version 426,2013-06-11 11:58:00,
2013-06-11 07:03:00,72.1,61.6,29.18,South,180,3.7,8.5,69,0.00,,,0.00,WSDL version 426,2013-06-11 12:03:00,
2013-06-11 07:08:00,72.2,61.5,29.21,South,183,4.7,8.5,69,0.00,,,0.00,WSDL version 426,2013-06-11 12:08:00,
2013-06-11 07:13:00,72.4,61.7,29.21,SSE,161,5.1,8.5,69,0.00,,,0.00,WSDL version 426,2013-06-11 12:13:00,
2013-06-11 07:18:00,72.6,61.8,29.21,South,173,4.9,9.6,69,0.00,,,0.00,WSDL version 426,2013-06-11 12:18:00,
2013-06-11 07:23:00,72.8,61.6,29.21,South,180,5.4,9.6,68,0.00,,,0.00,WSDL version 426,2013-06-11 12:23:00,
2013-06-11 07:28:00,73.0,61.8,29.21,South,170,5.0,8.5,68,0.00,,,0.00,WSDL version 426,2013-06-11 12:28:00,
2013-06-11 07:33:00,73.2,62.0,29.21,South,174,5.3,8.5,68,0.00,,,0.00,WSDL version 426,2013-06-11 12:33:00,
2013-06-11 07:38:00,73.4,61.9,29.21,South,178,5.5,8.5,67,0.00,,,0.00,WSDL version 426,2013-06-11 12:38:00,
2013-06-11 07:43:00,73.6,62.0,29.21,South,170,5.5,8.7,67,0.00,,,0.00,WSDL version 426,2013-06-11 12:43:00,
2013-06-11 07:48:00,74.0,62.3,29.21,SSE,163,5.1,8.7,67,0.00,,,0.00,WSDL version 426,2013-06-11 12:48:00,
2013-06-11 07:53:00,74.2,62.1,29.21,SSE,158,5.5,8.7,66,0.00,,,0.00,WSDL version 426,2013-06-11 12:53:00,
2013-06-11 07:58:00,74.5,62.4,29.21,South,180,6.0,10.1,66,0.00,,,0.00,WSDL version 426,2013-06-11 12:58:00,
2013-06-11 08:03:00,74.9,62.4,29.21,South,173,4.8,10.1,65,0.00,,,0.00,WSDL version 426,2013-06-11 13:03:00,
2013-06-11 08:08:00,75.2,62.5,29.21,South,180,5.0,9.2,64,0.00,,,0.00,WSDL version 426,2013-06-11 13:08:00,
2013-06-11 08:13:00,75.5,62.7,29.21,South,173,6.1,9.8,64,0.00,,,0.00,WSDL version 426,2013-06-11 13:13:00,
2013-06-11 08:18:00,75.9,62.9,29.21,SSE,163,5.4,9.8,64,0.00,,,0.00,WSDL version 426,2013-06-11 13:18:00,
2013-06-11 08:23:00,76.2,63.2,29.21,South,183,4.5,10.1,64,0.00,,,0.00,WSDL version 426,2013-06-11 13:23:00,
2013-06-11 08:28:00,76.6,63.1,29.21,South,186,5.5,10.1,63,0.00,,,0.00,WSDL version 426,2013-06-11 13:28:00,
2013-06-11 08:33:00,76.9,63.3,29.21,SSE,155,4.6,8.7,62,0.00,,,0.00,WSDL version 426,2013-06-11 13:33:00,
2013-06-11 08:38:00,77.2,63.2,29.21,South,173,4.7,7.8,62,0.00,,,0.00,WSDL version 426,2013-06-11 13:38:00,
2013-06-11 08:43:00,77.6,63.5,29.21,SSE,163,5.3,9.4,62,0.00,,,0.00,WSDL version 426,2013-06-11 13:43:00,
2013-06-11 08:48:00,77.9,63.2,29.21,SSE,158,6.3,11.0,60,0.00,,,0.00,WSDL version 426,2013-06-11 13:48:00,
2013-06-11 08:53:00,78.3,63.3,29.21,South,178,5.6,11.0,60,0.00,,,0.00,WSDL version 426,2013-06-11 13:53:00,
2013-06-11 08:58:00,78.7,63.5,29.21,SSE,163,4.8,11.0,59,0.00,,,0.00,WSDL version 426,2013-06-11 13:58:00,
2013-06-11 09:03:00,79.2,63.2,29.21,South,170,7.0,11.0,57,0.00,,,0.00,WSDL version 426,2013-06-11 14:03:00,
2013-06-11 09:08:00,79.6,63.1,29.23,SSE,160,6.3,11.0,57,0.00,,,0.00,WSDL version 426,2013-06-11 14:08:00,
2013-06-11 09:13:00,80.0,63.1,29.23,SSE,165,7.4,12.3,56,0.00,,,0.00,WSDL version 426,2013-06-11 14:13:00,
2013-06-11 09:18:00,80.5,63.0,29.23,South,191,6.0,12.8,55,0.00,,,0.00,WSDL version 426,2013-06-11 14:18:00,
2013-06-11 09:23:00,81.1,62.7,29.23,South,183,6.1,12.8,53,0.00,,,0.00,WSDL version 426,2013-06-11 14:23:00,
2013-06-11 09:28:00,81.4,62.9,29.23,SSE,163,6.5,12.5,53,0.00,,,0.00,WSDL version 426,2013-06-11 14:28:00,
2013-06-11 09:33:00,81.8,62.8,29.23,SSE,160,5.4,12.5,53,0.00,,,0.00,WSDL version 426,2013-06-11 14:33:00,
2013-06-11 09:38:00,82.3,62.8,29.23,SSE,168,6.5,12.3,51,0.00,,,0.00,WSDL version 426,2013-06-11 14:38:00,
2013-06-11 09:43:00,82.6,62.3,29.23,SSE,163,6.9,12.1,50,0.00,,,0.00,WSDL version 426,2013-06-11 14:43:00,
2013-06-11 09:48:00,83.0,62.3,29.23,SSE,168,7.1,13.4,49,0.00,,,0.00,WSDL version 426,2013-06-11 14:48:00,
2013-06-11 09:53:00,83.3,62.8,29.23,SSW,194,5.3,13.4,51,0.00,,,0.00,WSDL version 426,2013-06-11 14:53:00,
2013-06-11 09:58:00,83.9,62.4,29.23,South,170,7.4,10.7,48,0.00,,,0.00,WSDL version 426,2013-06-11 14:58:00,
2013-06-11 10:03:00,84.2,62.1,29.23,South,188,6.7,11.4,47,0.00,,,0.00,WSDL version 426,2013-06-11 15:03:00,
2013-06-11 10:08:00,84.5,61.7,29.23,SSE,149,6.3,11.4,46,0.00,,,0.00,WSDL version 426,2013-06-11 15:08:00,
2013-06-11 10:13:00,84.8,61.9,29.23,SSE,158,7.0,12.1,46,0.00,,,0.00,WSDL version 426,2013-06-11 15:13:00,
2013-06-11 10:18:00,85.3,62.5,29.23,SSW,193,4.7,12.1,47,0.00,,,0.00,WSDL version 426,2013-06-11 15:18:00,
2013-06-11 10:23:00,85.8,63.0,29.23,SSW,208,5.9,12.1,46,0.00,,,0.00,WSDL version 426,2013-06-11 15:23:00,
2013-06-11 10:28:00,86.0,61.8,29.23,South,186,6.9,10.5,44,0.00,,,0.00,WSDL version 426,2013-06-11 15:28:00,
2013-06-11 10:33:00,86.3,61.4,29.23,South,185,8.0,13.0,43,0.00,,,0.00,WSDL version 426,2013-06-11 15:33:00,
2013-06-11 10:38:00,86.6,61.7,29.23,South,180,6.9,13.0,44,0.00,,,0.00,WSDL version 426,2013-06-11 15:38:00,
2013-06-11 10:43:00,87.0,61.8,29.23,South,177,6.8,11.0,43,0.00,,,0.00,WSDL version 426,2013-06-11 15:43:00,
2013-06-11 10:48:00,87.2,61.6,29.23,South,170,8.1,11.0,42,0.00,,,0.00,WSDL version 426,2013-06-11 15:48:00,
2013-06-11 10:53:00,87.4,61.5,29.23,South,172,6.3,11.4,42,0.00,,,0.00,WSDL version 426,2013-06-11 15:53:00,
2013-06-11 10:58:00,87.8,61.4,29.23,SSE,166,7.4,13.2,41,0.00,,,0.00,WSDL version 426,2013-06-11 15:58:00,
2013-06-11 11:03:00,88.0,61.0,29.23,SSW,203,6.3,14.3,41,0.00,,,0.00,WSDL version 426,2013-06-11 16:03:00,
2013-06-11 11:08:00,88.2,61.2,29.23,SSE,163,7.8,14.3,40,0.00,,,0.00,WSDL version 426,2013-06-11 16:08:00,
2013-06-11 11:13:00,88.6,61.0,29.23,South,178,6.8,12.5,39,0.00,,,0.00,WSDL version 426,2013-06-11 16:13:00,
2013-06-11 11:18:00,88.8,61.1,29.23,SSW,194,5.4,12.5,40,0.00,,,0.00,WSDL version 426,2013-06-11 16:18:00,
2013-06-11 11:23:00,89.6,61.6,29.23,South,180,6.1,12.8,38,0.00,,,0.00,WSDL version 426,2013-06-11 16:23:00,
2013-06-11 11:28:00,89.8,60.2,29.23,South,169,6.7,18.8,37,0.00,,,0.00,WSDL version 426,2013-06-11 16:28:00,
2013-06-11 11:33:00,89.7,59.7,29.23,SSE,163,6.8,18.8,37,0.00,,,0.00,WSDL version 426,2013-06-11 16:33:00,
2013-06-11 11:38:00,89.9,58.9,29.23,SSE,166,8.6,19.2,35,0.00,,,0.00,WSDL version 426,2013-06-11 16:38:00,
2013-06-11 11:43:00,90.3,58.4,29.23,South,170,7.9,19.2,33,0.00,,,0.00,WSDL version 426,2013-06-11 16:43:00,
2013-06-11 11:48:00,90.3,57.7,29.23,South,178,8.8,17.2,33,0.00,,,0.00,WSDL version 426,2013-06-11 16:48:00,
2013-06-11 11:53:00,90.4,57.6,29.23,South,188,7.3,17.0,34,0.00,,,0.00,WSDL version 426,2013-06-11 16:53:00,
2013-06-11 11:58:00,90.6,57.2,29.23,SSW,195,8.6,15.2,33,0.00,,,0.00,WSDL version 426,2013-06-11 16:58:00,
2013-06-11 12:03:00,90.7,57.5,29.23,SSW,210,9.6,21.3,32,0.00,,,0.00,WSDL version 426,2013-06-11 17:03:00,
2013-06-11 12:09:00,90.9,58.3,29.23,South,170,6.5,17.4,34,0.00,,,0.00,WSDL version 426,2013-06-11 17:09:00,
2013-06-11 12:14:00,91.2,58.2,29.23,South,183,8.8,17.4,32,0.00,,,0.00,WSDL version 426,2013-06-11 17:14:00,
2013-06-11 12:19:00,91.7,58.2,29.23,South,188,8.3,17.4,32,0.00,,,0.00,WSDL version 426,2013-06-11 17:19:00,
2013-06-11 12:24:00,91.9,57.4,29.23,SSE,158,9.2,13.6,31,0.00,,,0.00,WSDL version 426,2013-06-11 17:24:00,
2013-06-11 12:29:00,92.2,57.2,29.23,South,175,10.9,14.8,30,0.00,,,0.00,WSDL version 426,2013-06-11 17:29:00,
2013-06-11 12:34:00,92.2,56.7,29.23,South,173,8.4,17.4,30,0.00,,,0.00,WSDL version 426,2013-06-11 17:34:00,
2013-06-11 12:39:00,92.6,57.5,29.23,South,174,9.6,17.4,31,0.00,,,0.00,WSDL version 426,2013-06-11 17:39:00,
2013-06-11 12:44:00,92.6,57.7,29.23,SSW,200,7.0,13.0,31,0.00,,,0.00,WSDL version 426,2013-06-11 17:44:00,
2013-06-11 12:49:00,92.4,57.1,29.23,South,191,10.1,14.3,31,0.00,,,0.00,WSDL version 426,2013-06-11 17:49:00,
2013-06-11 12:54:00,92.8,57.1,29.21,SSW,208,7.7,14.3,30,0.00,,,0.00,WSDL version 426,2013-06-11 17:54:00,
2013-06-11 12:59:00,92.9,57.7,29.21,SSE,149,5.4,12.8,31,0.00,,,0.00,WSDL version 426,2013-06-11 17:59:00,
2013-06-11 13:04:00,93.4,56.6,29.21,South,180,9.2,15.9,29,0.00,,,0.00,WSDL version 426,2013-06-11 18:04:00,
2013-06-11 13:09:00,93.2,56.7,29.21,SSE,168,5.9,15.9,30,0.00,,,0.00,WSDL version 426,2013-06-11 18:09:00,
2013-06-11 13:14:00,93.5,57.1,29.21,South,174,7.9,13.0,30,0.00,,,0.00,WSDL version 426,2013-06-11 18:14:00,
2013-06-11 13:19:00,93.6,57.0,29.21,SW,215,8.0,13.9,29,0.00,,,0.00,WSDL version 426,2013-06-11 18:19:00,
2013-06-11 13:24:00,93.4,56.5,29.21,SW,222,7.6,13.9,29,0.00,,,0.00,WSDL version 426,2013-06-11 18:24:00,
2013-06-11 13:29:00,93.6,56.9,29.21,SSW,198,5.8,14.8,30,0.00,,,0.00,WSDL version 426,2013-06-11 18:29:00,
2013-06-11 13:34:00,94.1,58.0,29.21,South,180,7.4,14.8,29,0.00,,,0.00,WSDL version 426,2013-06-11 18:34:00,
2013-06-11 13:39:00,94.4,58.4,29.21,SW,215,6.1,12.8,32,0.00,,,0.00,WSDL version 426,2013-06-11 18:39:00,
2013-06-11 13:44:00,94.6,59.0,29.21,SSE,166,7.8,14.5,30,0.00,,,0.00,WSDL version 426,2013-06-11 18:44:00,
2013-06-11 13:49:00,94.6,58.2,29.21,South,191,7.2,14.5,30,0.00,,,0.00,WSDL version 426,2013-06-11 18:49:00,
2013-06-11 13:54:00,94.4,58.4,29.21,South,183,8.7,12.3,30,0.00,,,0.00,WSDL version 426,2013-06-11 18:54:00,
2013-06-11 13:59:00,94.7,58.8,29.21,South,180,8.2,13.2,31,0.00,,,0.00,WSDL version 426,2013-06-11 18:59:00,
2013-06-11 14:04:00,95.1,59.7,29.21,South,178,7.3,13.2,31,0.00,,,0.00,WSDL version 426,2013-06-11 19:04:00,
2013-06-11 14:09:00,95.3,59.8,29.21,SSE,160,8.8,15.4,30,0.00,,,0.00,WSDL version 426,2013-06-11 19:09:00,
2013-06-11 14:14:00,95.8,60.0,29.21,SSE,163,9.3,17.0,30,0.00,,,0.00,WSDL version 426,2013-06-11 19:14:00,
2013-06-11 14:19:00,96.3,59.6,29.21,SSE,158,7.5,17.0,30,0.00,,,0.00,WSDL version 426,2013-06-11 19:19:00,
2013-06-11 14:24:00,96.3,60.1,29.21,SSE,152,7.5,11.0,30,0.00,,,0.00,WSDL version 426,2013-06-11 19:24:00,
2013-06-11 14:29:00,96.0,58.8,29.21,South,183,9.4,15.4,30,0.00,,,0.00,WSDL version 426,2013-06-11 19:29:00,
2013-06-11 14:34:00,96.1,59.3,29.21,SSE,163,8.1,15.4,29,0.00,,,0.00,WSDL version 426,2013-06-11 19:34:00,
2013-06-11 14:39:00,96.7,58.9,29.21,SSE,153,7.7,12.8,28,0.00,,,0.00,WSDL version 426,2013-06-11 19:39:00,
2013-06-11 14:44:00,96.7,58.3,29.21,SSE,158,7.8,15.4,28,0.00,,,0.00,WSDL version 426,2013-06-11 19:44:00,
2013-06-11 14:49:00,97.1,58.6,29.21,South,173,8.8,15.4,28,0.00,,,0.00,WSDL version 426,2013-06-11 19:49:00,
2013-06-11 14:54:00,96.7,57.8,29.21,South,173,8.8,13.9,28,0.00,,,0.00,WSDL version 426,2013-06-11 19:54:00,
2013-06-11 14:59:00,96.2,57.4,29.21,SSW,208,9.2,16.6,27,0.00,,,0.00,WSDL version 426,2013-06-11 19:59:00,
2013-06-11 15:04:00,96.0,57.0,29.21,SSE,168,9.7,16.6,28,0.00,,,0.00,WSDL version 426,2013-06-11 20:04:00,
2013-06-11 15:09:00,95.9,57.6,29.21,South,188,6.9,14.5,28,0.00,,,0.00,WSDL version 426,2013-06-11 20:09:00,
2013-06-11 15:14:00,95.9,57.4,29.21,SSW,208,9.6,17.7,28,0.00,,,0.00,WSDL version 426,2013-06-11 20:14:00,
2013-06-11 15:19:00,95.7,57.4,29.21,SSW,200,9.8,17.9,28,0.00,,,0.00,WSDL version 426,2013-06-11 20:19:00,
2013-06-11 15:24:00,96.1,58.4,29.18,South,173,7.2,17.9,29,0.00,,,0.00,WSDL version 426,2013-06-11 20:24:00,
2013-06-11 15:29:00,97.5,59.1,29.18,SSE,168,6.7,13.2,28,0.00,,,0.00,WSDL version 426,2013-06-11 20:29:00,
2013-06-11 15:34:00,97.3,57.7,29.18,South,180,10.0,14.5,27,0.00,,,0.00,WSDL version 426,2013-06-11 20:34:00,
2013-06-11 15:39:00,96.8,58.7,29.18,South,185,7.1,14.5,29,0.00,,,0.00,WSDL version 426,2013-06-11 20:39:00,
2013-06-11 15:44:00,97.2,59.0,29.18,SSE,166,7.8,16.8,28,0.00,,,0.00,WSDL version 426,2013-06-11 20:44:00,
2013-06-11 15:49:00,97.5,58.9,29.18,South,180,7.0,16.8,28,0.00,,,0.00,WSDL version 426,2013-06-11 20:49:00,
2013-06-11 15:54:00,97.3,58.8,29.18,South,183,8.7,15.9,28,0.00,,,0.00,WSDL version 426,2013-06-11 20:54:00,
2013-06-11 15:59:00,97.3,58.4,29.18,South,185,6.9,13.9,28,0.00,,,0.00,WSDL version 426,2013-06-11 20:59:00,
2013-06-11 16:04:00,97.2,58.3,29.18,SSE,168,8.2,16.3,27,0.00,,,0.00,WSDL version 426,2013-06-11 21:04:00,
2013-06-11 16:09:00,97.5,58.3,29.18,South,177,9.9,16.3,27,0.00,,,0.00,WSDL version 426,2013-06-11 21:09:00,
2013-06-11 16:14:00,97.3,57.8,29.18,South,185,9.2,16.6,27,0.00,,,0.00,WSDL version 426,2013-06-11 21:14:00,
2013-06-11 16:19:00,97.4,58.1,29.18,SSE,158,8.9,16.6,27,0.00,,,0.00,WSDL version 426,2013-06-11 21:19:00,
2013-06-11 16:24:00,98.7,59.3,29.18,South,175,9.6,14.5,27,0.00,,,0.00,WSDL version 426,2013-06-11 21:24:00,
2013-06-11 16:29:00,98.0,58.4,29.18,South,169,8.4,12.8,27,0.00,,,0.00,WSDL version 426,2013-06-11 21:29:00,
2013-06-11 16:34:00,98.0,58.3,29.18,SSE,165,8.5,17.4,27,0.00,,,0.00,WSDL version 426,2013-06-11 21:34:00,
2013-06-11 16:39:00,97.6,57.2,29.18,South,174,10.0,17.4,26,0.00,,,0.00,WSDL version 426,2013-06-11 21:39:00,
2013-06-11 16:44:00,97.7,57.6,29.18,SSE,160,9.2,17.4,27,0.00,,,0.00,WSDL version 426,2013-06-11 21:44:00,
2013-06-11 16:49:00,97.5,57.1,29.18,South,188,10.1,19.5,27,0.00,,,0.00,WSDL version 426,2013-06-11 21:49:00,
2013-06-11 16:54:00,98.0,57.5,29.18,SSW,209,8.1,19.5,26,0.00,,,0.00,WSDL version 426,2013-06-11 21:54:00,
2013-06-11 16:59:00,97.9,57.6,29.18,SW,215,7.2,15.7,26,0.00,,,0.00,WSDL version 426,2013-06-11 21:59:00,
2013-06-11 17:04:00,97.8,58.2,29.18,SSW,194,8.0,13.0,27,0.00,,,0.00,WSDL version 426,2013-06-11 22:04:00,
2013-06-11 17:09:00,98.0,58.4,29.15,SSE,168,6.9,13.2,27,0.00,,,0.00,WSDL version 426,2013-06-11 22:09:00,
2013-06-11 17:14:00,98.3,58.0,29.15,SSE,163,5.9,13.2,26,0.00,,,0.00,WSDL version 426,2013-06-11 22:14:00,
2013-06-11 17:19:00,99.4,58.5,29.15,South,177,8.1,13.2,26,0.00,,,0.00,WSDL version 426,2013-06-11 22:19:00,
2013-06-11 17:24:00,99.5,58.6,29.15,South,186,7.0,12.5,26,0.00,,,0.00,WSDL version 426,2013-06-11 22:24:00,
2013-06-11 17:29:00,99.4,58.9,29.15,SSE,149,7.3,12.5,27,0.00,,,0.00,WSDL version 426,2013-06-11 22:29:00,
2013-06-11 17:34:00,99.7,58.8,29.15,SE,143,11.1,22.6,26,0.00,,,0.00,WSDL version 426,2013-06-11 22:34:00,
2013-06-11 17:39:00,99.8,58.8,29.15,South,188,7.1,22.6,26,0.00,,,0.00,WSDL version 426,2013-06-11 22:39:00,
2013-06-11 17:44:00,99.1,58.4,29.15,SSE,160,6.1,12.5,26,0.00,,,0.00,WSDL version 426,2013-06-11 22:44:00,
2013-06-11 17:49:00,99.2,58.8,29.15,South,183,9.0,14.5,27,0.00,,,0.00,WSDL version 426,2013-06-11 22:49:00,
2013-06-11 17:54:00,99.1,59.3,29.18,SSE,166,8.8,15.4,27,0.00,,,0.00,WSDL version 426,2013-06-11 22:54:00,
2013-06-11 17:59:00,99.1,58.9,29.18,SSW,198,8.7,15.4,26,0.00,,,0.00,WSDL version 426,2013-06-11 22:59:00,
2013-06-11 18:04:00,98.6,58.9,29.18,South,169,8.2,13.0,27,0.00,,,0.00,WSDL version 426,2013-06-11 23:04:00,
2013-06-11 18:09:00,98.2,58.5,29.15,South,180,7.6,12.8,27,0.00,,,0.00,WSDL version 426,2013-06-11 23:09:00,
2013-06-11 18:14:00,98.6,58.9,29.15,SSE,155,7.1,12.8,27,0.00,,,0.00,WSDL version 426,2013-06-11 23:14:00,
2013-06-11 18:19:00,99.3,59.4,29.15,SSE,158,4.8,12.3,27,0.00,,,0.00,WSDL version 426,2013-06-11 23:19:00,
2013-06-11 18:24:00,99.9,59.2,29.15,SSE,163,8.0,14.3,26,0.00,,,0.00,WSDL version 426,2013-06-11 23:24:00,
2013-06-11 18:29:00,99.5,58.6,29.15,SSE,161,7.4,14.3,26,0.00,,,0.00,WSDL version 426,2013-06-11 23:29:00,
2013-06-11 18:34:00,99.7,58.7,29.15,SSE,163,8.0,14.8,26,0.00,,,0.00,WSDL version 426,2013-06-11 23:34:00,
2013-06-11 18:39:00,100.2,58.9,29.15,SSE,158,6.8,14.8,26,0.00,,,0.00,WSDL version 426,2013-06-11 23:39:00,
2013-06-11 18:44:00,99.6,58.7,29.15,SSE,160,8.9,13.2,26,0.00,,,0.00,WSDL version 426,2013-06-11 23:44:00,
2013-06-11 18:49:00,99.4,58.5,29.15,South,174,7.7,17.0,26,0.00,,,0.00,WSDL version 426,2013-06-11 23:49:00,
2013-06-11 18:54:00,99.0,58.1,29.15,South,185,6.3,17.0,26,0.00,,,0.00,WSDL version 426,2013-06-11 23:54:00,
2013-06-11 19:00:00,98.2,58.6,29.15,South,174,6.8,10.3,27,0.00,,,0.00,WSDL version 426,2013-06-12 00:00:00,
2013-06-11 19:05:00,98.4,58.7,29.15,South,190,4.4,10.5,27,0.00,,,0.00,WSDL version 426,2013-06-12 00:05:00,
2013-06-11 19:10:00,98.1,58.5,29.15,SSE,166,6.2,10.5,27,0.00,,,0.00,WSDL version 426,2013-06-12 00:10:00,
2013-06-11 19:15:00,98.1,58.4,29.15,South,170,5.8,10.1,27,0.00,,,0.00,WSDL version 426,2013-06-12 00:15:00,
2013-06-11 19:20:00,97.9,59.1,29.15,SSE,165,4.9,10.3,28,0.00,,,0.00,WSDL version 426,2013-06-12 00:20:00,
2013-06-11 19:25:00,98.1,59.1,29.15,SSE,154,5.7,12.5,28,0.00,,,0.00,WSDL version 426,2013-06-12 00:25:00,
2013-06-11 19:30:00,97.8,59.2,29.15,SSE,163,5.1,12.5,28,0.00,,,0.00,WSDL version 426,2013-06-12 00:30:00,
2013-06-11 19:35:00,98.2,59.5,29.15,SSE,161,3.8,9.8,28,0.00,,,0.00,WSDL version 426,2013-06-12 00:35:00,
2013-06-11 19:40:00,97.9,59.7,29.15,SE,146,4.4,8.7,29,0.00,,,0.00,WSDL version 426,2013-06-12 00:40:00,
2013-06-11 19:45:00,98.1,60.5,29.15,SSE,149,5.8,9.4,29,0.00,,,0.00,WSDL version 426,2013-06-12 00:45:00,
2013-06-11 19:50:00,97.2,59.6,29.15,SE,140,8.1,12.1,29,0.00,,,0.00,WSDL version 426,2013-06-12 00:50:00,
2013-06-11 19:55:00,95.9,59.5,29.15,SSE,153,6.4,12.1,30,0.00,,,0.00,WSDL version 426,2013-06-12 00:55:00,
2013-06-11 20:00:00,95.3,59.7,29.15,SSE,163,5.6,12.3,31,0.00,,,0.00,WSDL version 426,2013-06-12 01:00:00,
2013-06-11 20:05:00,94.5,59.8,29.15,South,170,5.3,12.3,32,0.00,,,0.00,WSDL version 426,2013-06-12 01:05:00,
2013-06-11 20:10:00,93.4,59.7,29.15,SSE,167,5.6,10.1,34,0.00,,,0.00,WSDL version 426,2013-06-12 01:10:00,
2013-06-11 20:15:00,92.2,60.3,29.15,SSE,153,6.1,8.7,35,0.00,,,0.00,WSDL version 426,2013-06-12 01:15:00,
2013-06-11 20:20:00,90.7,60.9,29.12,South,170,5.3,9.8,38,0.00,,,0.00,WSDL version 426,2013-06-12 01:20:00,
2013-06-11 20:25:00,89.5,61.0,29.12,SSE,150,7.1,10.3,39,0.00,,,0.00,WSDL version 426,2013-06-12 01:25:00,
2013-06-11 20:30:00,88.6,61.0,29.12,SE,146,6.5,10.5,40,0.00,,,0.00,WSDL version 426,2013-06-12 01:30:00,
2013-06-11 20:35:00,87.9,60.8,29.15,South,169,5.4,10.5,41,0.00,,,0.00,WSDL version 426,2013-06-12 01:35:00,
2013-06-11 20:40:00,87.4,60.8,29.15,SSE,160,5.0,10.5,41,0.00,,,0.00,WSDL version 426,2013-06-12 01:40:00,
2013-06-11 20:45:00,86.8,60.7,29.15,SSE,166,5.8,10.5,42,0.00,,,0.00,WSDL version 426,2013-06-12 01:45:00,
2013-06-11 20:50:00,86.1,60.5,29.15,SSE,150,5.5,9.4,43,0.00,,,0.00,WSDL version 426,2013-06-12 01:50:00,
2013-06-11 20:55:00,85.6,60.5,29.15,South,169,5.1,9.4,43,0.00,,,0.00,WSDL version 426,2013-06-12 01:55:00,
2013-06-11 21:00:00,85.2,60.3,29.15,SE,145,4.5,7.8,44,0.00,,,0.00,WSDL version 426,2013-06-12 02:00:00,
2013-06-11 21:05:00,84.7,60.5,29.15,SSE,160,4.5,7.4,45,0.00,,,0.00,WSDL version 426,2013-06-12 02:05:00,
2013-06-11 21:10:00,84.5,60.8,29.15,SSE,151,4.6,7.4,45,0.00,,,0.00,WSDL version 426,2013-06-12 02:10:00,
2013-06-11 21:15:00,84.3,60.6,29.15,SSE,164,3.5,7.2,45,0.00,,,0.00,WSDL version 426,2013-06-12 02:15:00,
2013-06-11 21:20:00,83.8,60.7,29.15,SSE,163,4.7,7.8,46,0.00,,,0.00,WSDL version 426,2013-06-12 02:20:00,
2013-06-11 21:25:00,83.4,60.9,29.15,SSE,163,3.8,7.8,47,0.00,,,0.00,WSDL version 426,2013-06-12 02:25:00,
2013-06-11 21:30:00,83.2,60.9,29.15,SSE,166,3.6,7.8,47,0.00,,,0.00,WSDL version 426,2013-06-12 02:30:00,
2013-06-11 21:35:00,82.9,61.3,29.15,SSE,155,4.6,7.4,49,0.00,,,0.00,WSDL version 426,2013-06-12 02:35:00,
2013-06-11 21:40:00,82.6,61.6,29.15,SSE,163,4.4,7.2,49,0.00,,,0.00,WSDL version 426,2013-06-12 02:40:00,
2013-06-11 21:45:00,82.6,61.5,29.15,SSE,152,3.9,7.2,49,0.00,,,0.00,WSDL version 426,2013-06-12 02:45:00,
2013-06-11 21:50:00,82.3,62.0,29.15,SSE,163,4.1,6.3,51,0.00,,,0.00,WSDL version 426,2013-06-12 02:50:00,
2013-06-11 21:55:00,82.2,62.3,29.15,SSE,149,3.1,6.0,51,0.00,,,0.00,WSDL version 426,2013-06-12 02:55:00,
2013-06-11 22:00:00,81.9,62.5,29.15,SSE,160,3.0,5.6,52,0.00,,,0.00,WSDL version 426,2013-06-12 03:00:00,
2013-06-11 22:05:00,81.6,62.6,29.15,SSE,152,3.9,6.7,53,0.00,,,0.00,WSDL version 426,2013-06-12 03:05:00,
2013-06-11 22:10:00,81.2,62.9,29.15,South,180,4.0,6.7,54,0.00,,,0.00,WSDL version 426,2013-06-12 03:10:00,
2013-06-11 22:15:00,80.9,63.3,29.15,SSE,165,3.6,5.6,55,0.00,,,0.00,WSDL version 426,2013-06-12 03:15:00,
2013-06-11 22:20:00,80.8,63.6,29.18,SSE,158,4.2,6.3,56,0.00,,,0.00,WSDL version 426,2013-06-12 03:20:00,
2013-06-11 22:25:00,80.6,64.0,29.18,SSE,163,3.8,7.4,57,0.00,,,0.00,WSDL version 426,2013-06-12 03:25:00,
2013-06-11 22:30:00,80.8,64.3,29.18,West,267,4.0,7.4,57,0.00,,,0.00,WSDL version 426,2013-06-12 03:30:00,
2013-06-11 22:35:00,80.6,64.2,29.18,SSE,161,4.0,7.6,58,0.00,,,0.00,WSDL version 426,2013-06-12 03:35:00,
2013-06-11 22:40:00,80.3,64.7,29.18,SSE,158,4.1,7.6,59,0.00,,,0.00,WSDL version 426,2013-06-12 03:40:00,
2013-06-11 22:45:00,80.4,64.8,29.18,SSE,160,4.0,7.2,59,0.00,,,0.00,WSDL version 426,2013-06-12 03:45:00,
2013-06-11 22:50:00,80.0,64.7,29.18,SSE,148,4.8,7.6,60,0.00,,,0.00,WSDL version 426,2013-06-12 03:50:00,
2013-06-11 22:55:00,79.8,64.7,29.18,South,169,4.2,7.6,60,0.00,,,0.00,WSDL version 426,2013-06-12 03:55:00,
2013-06-11 23:00:00,79.9,65.1,29.18,SSE,158,3.6,7.6,61,0.00,,,0.00,WSDL version 426,2013-06-12 04:00:00,
2013-06-11 23:01:00,79.9,65.1,29.18,SSE,163,3.3,6.5,61,0.00,,,0.00,WSDL version 426,2013-06-12 04:01:00,
2013-06-11 23:02:00,79.9,65.1,29.18,SE,146,3.6,6.5,61,0.00,,,0.00,WSDL version 426,2013-06-12 04:02:00,
2013-06-11 23:04:00,79.9,65.3,29.18,SSE,160,3.8,6.5,61,0.00,,,0.00,WSDL version 426,2013-06-12 04:04:00,
2013-06-11 23:07:00,79.9,65.2,29.18,SSE,148,3.5,6.5,60,0.00,,,0.00,WSDL version 426,2013-06-12 04:07:00,
2013-06-11 23:10:00,79.7,65.0,29.18,South,169,3.9,6.5,61,0.00,,,0.00,WSDL version 426,2013-06-12 04:10:00,
2013-06-11 23:15:00,79.2,64.7,29.18,SSE,164,4.2,6.5,61,0.00,,,0.00,WSDL version 426,2013-06-12 04:15:00,
2013-06-11 23:20:00,79.3,65.1,29.18,SSE,166,4.3,6.5,62,0.00,,,0.00,WSDL version 426,2013-06-12 04:20:00,
2013-06-11 23:25:00,79.2,65.3,29.18,SSE,158,4.8,7.4,63,0.00,,,0.00,WSDL version 426,2013-06-12 04:25:00,
2013-06-11 23:30:00,79.0,65.1,29.18,SSE,152,4.6,7.4,63,0.00,,,0.00,WSDL version 426,2013-06-12 04:30:00,
2013-06-11 23:35:00,78.7,65.4,29.18,SSE,160,4.6,8.7,64,0.00,,,0.00,WSDL version 426,2013-06-12 04:35:00,
2013-06-11 23:40:00,78.6,65.5,29.18,SSE,163,5.2,9.6,65,0.00,,,0.00,WSDL version 426,2013-06-12 04:40:00,
2013-06-11 23:45:00,78.5,65.7,29.18,SSE,163,4.4,10.1,65,0.00,,,0.00,WSDL version 426,2013-06-12 04:45:00,
2013-06-11 23:50:00,78.6,65.9,29.18,SSE,152,4.1,10.1,65,0.00,,,0.00,WSDL version 426,2013-06-12 04:50:00,
2013-06-11 23:55:00,78.4,65.7,29.18,SSE,155,4.8,8.7,65,0.00,,,0.00,WSDL version 426,2013-06-12 04:55:00,